Weather History for Versailles, OH

Change the Weather History Date:

Thursday, February 21, 2013

  Actual Average (KDAY) Record (KDAY)
Temperature  
Mean Temperature 24 °F 32 °F  
Max Temperature 26 °F 41 °F 68 °F (1930)
Min Temperature 21 °F 24 °F -4 °F (2008)
Degree Days  
Heating Degree Days 42 33  
Month to date heating degree days 733  
Since 1 July heating degree days 4056  
Cooling Degree Days 0 0  
Month to date cooling degree days 0  
Year to date cooling degree days 0  
Moisture  
Dew Point 19 °F    
Average Humidity 81    
Maximum Humidity 86    
Minimum Humidity 74    
Precipitation  
Precipitation 0.00 in 0.08 in 1.39 in (1945)
Month to date precipitation 1.67  
Year to date precipitation 4.38  
Snow  
Snow 0.00 in 0.20 in 9.00 in (1912)
Month to date snowfall 4.5  
Since 1 July snowfall 17.9  
Snow Depth -    
Sea Level Pressure  
Sea Level Pressure 30.25 in    
Wind  
Wind Speed 8 mph (ENE)    
Max Wind Speed 18 mph    
Max Gust Speed 21 mph    
Visibility 10 miles    
Events Snow    
T = Trace of Precipitation, MM = Missing Value Source: NWS Daily Summary

Daily Weather History Graph

Daily Weather History Graph

Search for Another Location

Airport:

Trip Planner

Search our weather history database for the weather conditions in past years. The results will help you decide how hot, cold, wet, or windy it might be!

Date:

Astronomy

Feb. 21, 2013 Rise Set
Actual Time 7:22 AM EST 6:21 PM EST
Civil Twilight 6:55 AM EST 6:48 PM EST
Nautical Twilight 6:23 AM EST 7:20 PM EST
Astronomical Twilight 5:52 AM EST 7:51 PM EST
Moon 2:34 PM EST (2/21) 4:27 AM EST (2/21)
Length of Visible Light 11h 53m
Length of Day
10h 58m
Waxing Gibbous, 83% of the Moon is Illuminated
Feb 21
Waxing Gibbous
Feb 25
Full
Mar 4
Last Quarter
Mar 11
New
Mar 19
First Quarter

Hourly Weather History & Observations

Time (EST) Temp. Windchill Dew Point Humidity Pressure Visibility Wind Dir Wind Speed Gust Speed Precip Events Conditions
12:15 AM 21.2 °F 12.6 °F 17.6 °F 86% 30.26 in 10.0 mi NW 6.9 mph - N/A Snow Light Snow
12:35 AM 21.2 °F 12.6 °F 17.6 °F 86% 30.26 in 10.0 mi NW 6.9 mph - N/A Snow Light Snow
12:55 AM 21.2 °F 12.6 °F 17.6 °F 86% 30.26 in 10.0 mi NNW 6.9 mph - N/A   Overcast
1:15 AM 21.2 °F 12.6 °F 17.6 °F 86% 30.26 in 10.0 mi NNW 6.9 mph - N/A   Overcast
1:35 AM 21.2 °F 11.7 °F 17.6 °F 86% 30.26 in 10.0 mi NW 8.1 mph - N/A   Overcast
1:55 AM 21.2 °F 12.6 °F 17.6 °F 86% 30.27 in 10.0 mi NNW 6.9 mph - N/A   Overcast
2:15 AM 21.2 °F 11.7 °F 17.6 °F 86% 30.27 in 10.0 mi North 8.1 mph - N/A   Overcast
2:35 AM 21.2 °F 12.6 °F 17.6 °F 86% 30.27 in 10.0 mi NNW 6.9 mph - N/A   Overcast
2:55 AM 21.2 °F 12.6 °F 17.6 °F 86% 30.28 in 10.0 mi NNW 6.9 mph - N/A   Overcast
3:15 AM 21.2 °F 11.7 °F 17.6 °F 86% 30.27 in 10.0 mi North 8.1 mph - N/A   Overcast
3:35 AM 21.2 °F 13.6 °F 17.6 °F 86% 30.27 in 10.0 mi North 5.8 mph - N/A   Overcast
3:55 AM 21.2 °F 14.9 °F 17.6 °F 86% 30.27 in 10.0 mi North 4.6 mph - N/A   Overcast
4:15 AM 21.2 °F 10.9 °F 17.6 °F 86% 30.27 in 10.0 mi NNW 9.2 mph 16.1 mph N/A   Overcast
4:35 AM 21.2 °F 10.9 °F 17.6 °F 86% 30.26 in 10.0 mi North 9.2 mph - N/A   Overcast
4:55 AM 21.2 °F 10.9 °F 15.8 °F 80% 30.28 in 10.0 mi NNW 9.2 mph - N/A   Overcast
5:15 AM 21.2 °F 13.6 °F 15.8 °F 80% 30.28 in 10.0 mi North 5.8 mph - N/A   Overcast
5:35 AM 21.2 °F 12.6 °F 15.8 °F 80% 30.28 in 10.0 mi NNW 6.9 mph - N/A   Overcast
5:55 AM 21.2 °F 12.6 °F 15.8 °F 80% 30.28 in 10.0 mi North 6.9 mph - N/A   Overcast
6:15 AM 21.2 °F 12.6 °F 17.6 °F 86% 30.29 in 10.0 mi NNW 6.9 mph - N/A   Overcast
6:55 AM 21.2 °F 16.4 °F 15.8 °F 80% 30.30 in 10.0 mi North 3.5 mph - N/A   Overcast
7:15 AM 21.2 °F 14.9 °F 15.8 °F 80% 30.30 in 10.0 mi NNW 4.6 mph - N/A   Overcast
7:35 AM 21.2 °F 14.9 °F 15.8 °F 80% 30.32 in 10.0 mi North 4.6 mph - N/A   Overcast
7:55 AM 21.2 °F 12.6 °F 15.8 °F 80% 30.31 in 10.0 mi North 6.9 mph - N/A   Overcast
8:15 AM 21.2 °F - 15.8 °F 80% 30.31 in 10.0 mi Calm Calm - N/A   Overcast
8:35 AM 21.2 °F - 15.8 °F 80% 30.32 in 10.0 mi Calm Calm - N/A   Overcast
8:55 AM 21.2 °F - 15.8 °F 80% 30.32 in 10.0 mi Calm Calm - N/A   Overcast
9:15 AM 21.2 °F 14.9 °F 15.8 °F 80% 30.32 in 10.0 mi ENE 4.6 mph - N/A   Overcast
9:35 AM 21.2 °F 12.6 °F 15.8 °F 80% 30.32 in 10.0 mi NE 6.9 mph - N/A   Overcast
9:55 AM 21.2 °F 16.4 °F 17.6 °F 86% 30.32 in 10.0 mi NNE 3.5 mph - N/A   Overcast
10:15 AM 21.2 °F 16.4 °F 17.6 °F 86% 30.32 in 10.0 mi ENE 3.5 mph - N/A   Overcast
10:35 AM 21.2 °F 16.4 °F 15.8 °F 80% 30.32 in 10.0 mi NNE 3.5 mph - N/A   Overcast
10:55 AM 23.0 °F 18.4 °F 17.6 °F 80% 30.33 in 10.0 mi ENE 3.5 mph - N/A Snow Light Snow
11:15 AM 23.0 °F 17.0 °F 17.6 °F 80% 30.32 in 10.0 mi East 4.6 mph - N/A Snow Light Snow
11:35 AM 23.0 °F 18.4 °F 17.6 °F 80% 30.31 in 10.0 mi East 3.5 mph - N/A   Overcast
11:55 AM 23.0 °F 18.4 °F 17.6 °F 80% 30.31 in 10.0 mi East 3.5 mph - N/A   Overcast
12:15 PM 23.0 °F 18.4 °F 17.6 °F 80% 30.32 in 10.0 mi ENE 3.5 mph - N/A   Overcast
12:35 PM 23.0 °F 15.8 °F 17.6 °F 80% 30.30 in 10.0 mi NE 5.8 mph - N/A   Overcast
12:55 PM 23.0 °F 13.9 °F 17.6 °F 80% 30.29 in 10.0 mi East 8.1 mph - N/A   Overcast
1:15 PM 24.8 °F 17.9 °F 19.4 °F 80% 30.27 in 10.0 mi ENE 5.8 mph - N/A   Overcast
1:35 PM 24.8 °F 16.1 °F 19.4 °F 80% 30.26 in 10.0 mi ENE 8.1 mph - N/A   Overcast
1:55 PM 24.8 °F 16.1 °F 19.4 °F 80% 30.25 in 10.0 mi East 8.1 mph - N/A   Overcast
2:15 PM 24.8 °F 17.9 °F 19.4 °F 80% 30.23 in 10.0 mi East 5.8 mph - N/A   Overcast
2:35 PM 24.8 °F 15.3 °F 19.4 °F 80% 30.22 in 10.0 mi East 9.2 mph - N/A   Overcast
2:55 PM 26.6 °F 16.8 °F 19.4 °F 74% 30.22 in 10.0 mi East 10.4 mph - N/A   Overcast
3:15 PM 26.6 °F 16.8 °F 19.4 °F 74% 30.22 in 10.0 mi ESE 10.4 mph - N/A   Overcast
3:35 PM 26.6 °F 16.2 °F 19.4 °F 74% 30.22 in 10.0 mi East 11.5 mph 16.1 mph N/A   Overcast
3:55 PM 26.6 °F 15.7 °F 21.2 °F 80% 30.21 in 10.0 mi East 12.7 mph 16.1 mph N/A   Overcast
4:15 PM 26.6 °F 15.7 °F 21.2 °F 80% 30.20 in 10.0 mi East 12.7 mph 18.4 mph N/A   Overcast
4:35 PM 26.6 °F 15.7 °F 21.2 °F 80% 30.22 in 10.0 mi East 12.7 mph - N/A   Overcast
4:55 PM 26.6 °F 16.8 °F 19.4 °F 74% 30.23 in 10.0 mi East 10.4 mph - N/A   Overcast
5:15 PM 26.6 °F 17.5 °F 19.4 °F 74% 30.25 in 10.0 mi East 9.2 mph - N/A   Overcast
5:35 PM 26.6 °F 17.5 °F 21.2 °F 80% 30.25 in 10.0 mi SE 9.2 mph - N/A   Overcast
5:55 PM 26.6 °F 16.2 °F 21.2 °F 80% 30.23 in 10.0 mi ESE 11.5 mph - N/A   Overcast
6:15 PM 26.6 °F 15.2 °F 21.2 °F 80% 30.22 in 10.0 mi East 13.8 mph - N/A   Overcast
6:35 PM 26.6 °F 14.3 °F 21.2 °F 80% 30.20 in 10.0 mi East 16.1 mph - N/A   Mostly Cloudy
6:55 PM 26.6 °F 15.2 °F 21.2 °F 80% 30.20 in 10.0 mi East 13.8 mph 17.3 mph N/A   Mostly Cloudy
7:15 PM 26.6 °F 15.7 °F 21.2 °F 80% 30.20 in 10.0 mi East 12.7 mph - N/A   Mostly Cloudy
7:35 PM 26.6 °F 14.7 °F 21.2 °F 80% 30.19 in 10.0 mi East 15.0 mph 20.7 mph N/A   Scattered Clouds
7:55 PM 26.6 °F 14.7 °F 21.2 °F 80% 30.18 in 10.0 mi East 15.0 mph 20.7 mph N/A   Scattered Clouds
8:15 PM 24.8 °F 14.0 °F 19.4 °F 80% 30.19 in 10.0 mi East 11.5 mph 18.4 mph N/A   Clear
8:35 PM 26.6 °F 16.2 °F 19.4 °F 74% 30.18 in 10.0 mi East 11.5 mph - N/A   Clear
8:55 PM 26.6 °F 17.5 °F 19.4 °F 74% 30.18 in 10.0 mi ESE 9.2 mph - N/A   Mostly Cloudy
9:15 PM 26.6 °F 16.8 °F 21.2 °F 80% 30.18 in 10.0 mi ESE 10.4 mph - N/A   Overcast
9:35 PM 26.6 °F 16.8 °F 21.2 °F 80% 30.19 in 10.0 mi ESE 10.4 mph - N/A   Overcast
9:55 PM 26.6 °F 16.2 °F 21.2 °F 80% 30.17 in 10.0 mi ESE 11.5 mph - N/A   Overcast
10:15 PM 26.6 °F 15.2 °F 21.2 °F 80% 30.15 in 10.0 mi ESE 13.8 mph - N/A   Overcast
10:35 PM 26.6 °F 15.7 °F 21.2 °F 80% 30.13 in 10.0 mi ESE 12.7 mph 18.4 mph N/A   Overcast
10:55 PM 26.6 °F 15.2 °F 21.2 °F 80% 30.11 in 7.0 mi ESE 13.8 mph 18.4 mph N/A Snow Light Snow
11:15 PM 26.6 °F 17.5 °F 21.2 °F 80% 30.12 in 10.0 mi ESE 9.2 mph 18.4 mph N/A   Overcast
11:35 PM 26.6 °F 14.7 °F 21.2 °F 80% 30.11 in 5.0 mi ESE 15.0 mph - N/A Snow Light Snow
11:55 PM 26.6 °F 13.4 °F 23.0 °F 86% 30.07 in 2.0 mi East 18.4 mph - N/A Snow Light Snow